Weather History for Houghton, MI

Change the Weather History Date:

Tuesday, February 19, 2013

  Actual Average Record
Temperature  
Mean Temperature 17 °F -  
Max Temperature 26 °F 25 °F 48 °F (1954)
Min Temperature 8 °F 12 °F -25 °F (1966)
Degree Days  
Heating Degree Days 48    
Moisture  
Dew Point 9 °F    
Average Humidity 87    
Maximum Humidity 100    
Minimum Humidity 79    
Precipitation  
Precipitation 0.21 in - - ()
Sea Level Pressure  
Sea Level Pressure 29.76 in    
Wind  
Wind Speed 24 mph (NNW)    
Max Wind Speed 32 mph    
Max Gust Speed 44 mph    
Averages and records for this station are not official NWS values.
T = Trace of Precipitation, MM = Missing Value Source: NWS Daily Summary

Daily Weather History Graph

Daily Weather History Graph

Search for Another Location

Airport:

Trip Planner

Search our weather history database for the weather conditions in past years. The results will help you decide how hot, cold, wet, or windy it might be!

Date:

Astronomy

Feb. 19, 2013 Rise Set
Actual Time 7:51 AM EST 6:24 PM EST
Civil Twilight 7:20 AM EST 6:55 PM EST
Nautical Twilight 6:44 AM EST 7:31 PM EST
Astronomical Twilight 6:09 AM EST 8:06 PM EST
Moon 12:43 PM EST (2/19) 3:35 AM EST (2/19)
Length of Visible Light 11h 35m
Length of Day
10h 33m
Waxing Gibbous, 67% of the Moon is Illuminated
Feb 19
Waxing Gibbous
Feb 25
Full
Mar 4
Last Quarter
Mar 11
New
Mar 19
First Quarter

Hourly Weather History & Observations

Time (EST) Temp. Windchill Dew Point Humidity Pressure Visibility Wind Dir Wind Speed Gust Speed Precip Events Conditions
12:53 AM 26.1 °F 12.0 °F 24.1 °F 92% 29.48 in 2.0 mi North 20.7 mph 28.8 mph 0.01 in Snow Light Snow
12:59 AM 24.8 °F 10.3 °F 24.8 °F 100% 29.44 in 1.2 mi North 20.7 mph 28.8 mph 0.00 in Snow Light Snow
1:53 AM 21.0 °F 5.7 °F 19.0 °F 92% 29.51 in 1.5 mi North 19.6 mph 32.2 mph 0.01 in Rain Light Freezing Rain
2:18 AM 19.4 °F 4.1 °F 17.6 °F 93% 29.45 in 1.5 mi North 18.4 mph 28.8 mph 0.00 in Snow Light Snow
2:34 AM 19.4 °F 3.2 °F 17.6 °F 93% 29.45 in 0.8 mi North 20.7 mph 29.9 mph 0.00 in Snow Light Snow
2:48 AM 19.4 °F 2.8 °F 15.8 °F 86% 29.46 in 0.5 mi NNW 21.9 mph 33.4 mph 0.01 in Fog , Snow Snow
2:53 AM 19.0 °F 2.0 °F 16.0 °F 88% 29.50 in 0.5 mi NNW 23.0 mph 32.2 mph 0.01 in Fog , Snow Snow
3:49 AM 17.6 °F -1.0 °F 15.8 °F 93% 29.46 in 0.5 mi NNW 26.5 mph 32.2 mph 0.00 in Fog , Snow Snow
3:53 AM 17.1 °F -1.0 °F 14.0 °F 88% 29.51 in 0.5 mi NNW 24.2 mph 32.2 mph 0.01 in Fog , Snow Snow
4:07 AM 17.6 °F -1.0 °F 14.0 °F 86% 29.46 in 0.2 mi NNW 26.5 mph 33.4 mph N/A Fog Light Freezing Fog
4:53 AM 16.0 °F -3.2 °F 14.0 °F 92% 29.52 in 0.2 mi NNW 26.5 mph 34.5 mph 0.02 in Fog Light Freezing Fog
5:53 AM 15.1 °F -5.0 °F 12.0 °F 88% 29.53 in 0.2 mi NNW 28.8 mph 42.6 mph 0.04 in Fog Light Freezing Fog
6:53 AM 14.0 °F -5.8 °F 10.9 °F 88% 29.56 in 0.2 mi NNW 26.5 mph 43.7 mph 0.05 in Fog Light Freezing Fog
7:53 AM 12.9 °F -8.0 °F 10.0 °F 88% 29.59 in 0.2 mi NNW 28.8 mph 40.3 mph 0.05 in Fog Light Freezing Fog
8:53 AM 10.9 °F -10.3 °F 9.0 °F 92% 29.63 in 0.2 mi NNW 27.6 mph 42.6 mph N/A Fog Light Freezing Fog
9:53 AM 10.9 °F -9.9 °F 8.1 °F 88% 29.67 in 0.2 mi NNW 26.5 mph 36.8 mph N/A Fog Light Freezing Fog
10:53 AM 10.0 °F -10.8 °F 7.0 °F 87% 29.70 in 0.2 mi NNW 25.3 mph 38.0 mph N/A Fog Light Freezing Fog
11:04 AM 10.4 °F -12.3 °F 6.8 °F 85% 29.64 in 0.2 mi NNW 32.2 mph 39.1 mph N/A Fog Light Freezing Fog
11:53 AM 10.0 °F -12.2 °F 7.0 °F 87% 29.73 in 0.2 mi NNW 29.9 mph 38.0 mph N/A Fog Light Freezing Fog
1:53 PM 9.0 °F -12.2 °F 6.1 °F 88% 29.79 in 0.2 mi NNW 25.3 mph 33.4 mph 0.01 in Fog Light Freezing Fog
2:53 PM 8.1 °F -14.2 °F 5.0 °F 87% 29.83 in 0.2 mi NNW 27.6 mph 35.7 mph N/A Fog Light Freezing Fog
3:53 PM 8.1 °F -14.2 °F 5.0 °F 87% 29.87 in 0.2 mi NW 27.6 mph 36.8 mph N/A Fog Light Freezing Fog
4:28 PM 8.6 °F -13.1 °F 5.0 °F 85% 29.82 in 0.2 mi NW 26.5 mph 35.7 mph N/A Fog Light Freezing Fog
4:53 PM 8.1 °F -12.6 °F 5.0 °F 87% 29.90 in 0.2 mi NNW 23.0 mph 33.4 mph N/A Fog Light Freezing Fog
5:53 PM 9.0 °F -11.8 °F 6.1 °F 88% 29.93 in 0.2 mi NNW 24.2 mph 33.4 mph N/A Fog Light Freezing Fog
6:24 PM 10.4 °F -8.6 °F 6.8 °F 85% 29.88 in 0.5 mi NNW 20.7 mph 32.2 mph N/A Fog Light Freezing Fog
7:29 PM 10.4 °F -11.0 °F 6.8 °F 85% 29.92 in 0.5 mi North 27.6 mph 35.7 mph N/A Fog Light Freezing Fog
7:53 PM 10.0 °F -10.4 °F 5.0 °F 80% 30.01 in 0.5 mi North 24.2 mph 33.4 mph N/A   Haze
8:21 PM 8.6 °F -13.1 °F 5.0 °F 85% 29.94 in 0.2 mi NNW 26.5 mph 36.8 mph N/A Fog Light Freezing Fog
8:43 PM 8.6 °F -14.5 °F 5.0 °F 85% 29.95 in 0.2 mi NNW 31.1 mph 35.7 mph N/A Fog Light Freezing Fog
8:53 PM 9.0 °F -11.8 °F 6.1 °F 88% 30.04 in 0.2 mi NNW 24.2 mph 34.5 mph N/A Fog Light Freezing Fog
9:02 PM 8.6 °F -13.4 °F 5.0 °F 85% 29.96 in 0.5 mi North 27.6 mph 34.5 mph N/A Fog Light Freezing Fog
9:15 PM 8.6 °F -13.1 °F 5.0 °F 85% 29.97 in 0.2 mi North 26.5 mph 35.7 mph N/A Fog Light Freezing Fog
9:18 PM 8.6 °F -12.7 °F 3.2 °F 79% 29.97 in 0.5 mi North 25.3 mph 35.7 mph N/A   Haze
9:27 PM 8.6 °F -13.1 °F 5.0 °F 85% 29.97 in 0.2 mi NNW 26.5 mph 35.7 mph N/A Fog Light Freezing Fog
9:53 PM 9.0 °F -12.2 °F 3.9 °F 80% 30.07 in 0.2 mi NNW 25.3 mph 34.5 mph N/A   Haze
10:02 PM 8.6 °F -13.1 °F 3.2 °F 79% 30.00 in 0.5 mi NNW 26.5 mph 40.3 mph N/A Fog Light Freezing Fog
10:53 PM 8.1 °F -13.0 °F 3.9 °F 83% 30.09 in 0.5 mi NNW 24.2 mph 32.2 mph N/A Fog Light Freezing Fog
11:48 PM 8.6 °F -12.3 °F 5.0 °F 85% 30.03 in 0.2 mi NNW 24.2 mph 35.7 mph N/A Fog Light Freezing Fog
11:53 PM 8.1 °F -14.2 °F 5.0 °F 87% 30.12 in 0.2 mi NNW 27.6 mph 36.8 mph N/A Fog Light Freezing Fog